Location: Bois de la Silve
(44.4667°N, 6.7833°E)
Time: 19:37:08
(UTC+00:00)

IRS-1D - Pass Details

Date: 14 July 2020
Orbit: 739 x 817 km, 98.6° (Epoch: 14 August)

Event Time Altitude Azimuth Distance (km) Brightness Sun altitude
Rises 02:19:04 0° 9° (N) 3,195 7.8 -14.5°
Reaches altitude 10° 02:21:24 10° 4° (N) 2,262 6.8 -14.2°
Maximum altitude 02:26:12 51° 289° (WNW) 926 3.8 -13.7°
Enters shadow 02:29:29 20° 221° (SW) 1,688 4.6 -13.3°
